California, MD

6:09 PM EDT on September 28, 2016 (GMT -0400)
Leonardtown

Weather History for K2W6 - May, 2013

Change the Weather History Date:

Friday, May 24, 2013

  Actual Average (KNHK) Record (KNHK)
Temperature  
Mean Temperature 59 °F -  
Max Temperature 68 °F 75 °F 91 °F (2004)
Min Temperature 50 °F 59 °F 48 °F (2006)
Degree Days  
Heating Degree Days 6    
Growing Degree Days 9 (Base 50)    
Moisture  
Dew Point 47 °F    
Average Humidity 69    
Maximum Humidity 94    
Minimum Humidity 47    
Precipitation  
Precipitation 0.00 in - - ()
Sea Level Pressure  
Sea Level Pressure 29.93 in    
Wind  
Wind Speed 7 mph (WNW)    
Max Wind Speed 16 mph    
Max Gust Speed 28 mph    
Visibility 10 miles    
Events      
Averages and records for this station are not official NWS values.
T = Trace of Precipitation, MM = Missing Value Source: NWS Daily Summary

Daily Weather History Graph

Daily Weather History Graph

Search for Another Location

Airport or City:

Trip Planner

Search our weather history database for the weather conditions in past years. The results will help you decide how hot, cold, wet, or windy it might be!

Date:

Astronomy

May. 24, 2013 Rise Set
Actual Time 5:48 AM EDT 8:18 PM EDT
Civil Twilight 5:17 AM EDT 8:48 PM EDT
Nautical Twilight 4:40 AM EDT 9:26 PM EDT
Astronomical Twilight 3:58 AM EDT 10:08 PM EDT
Moon 7:58 PM EDT (5/24) 5:17 AM EDT (5/24)
Length of Visible Light 15h 31m
Length of Day
14h 30m
Full, 100% of the Moon is Illuminated
May 24
Full
May 25
Full
May 31
Last Quarter
Jun 8
New
Jun 16
First Quarter

Hourly Weather History & Observations

Time (EDT) Temp. Dew Point Humidity Pressure Visibility Wind Dir Wind Speed Gust Speed Precip Events Conditions
12:04 AM 68.0 °F 62.6 °F 83% 29.80 in 10.0 mi WSW 6.9 mph - N/A   Clear
12:24 AM 68.0 °F 62.6 °F 83% 29.81 in 10.0 mi WNW 11.5 mph 17.3 mph N/A   Scattered Clouds
12:44 AM 68.0 °F 57.2 °F 68% 29.79 in 10.0 mi WNW 4.6 mph 16.1 mph N/A   Mostly Cloudy
1:04 AM 64.4 °F 59.0 °F 83% 29.79 in 10.0 mi Calm Calm - N/A   Scattered Clouds
1:24 AM 64.4 °F 59.0 °F 83% 29.79 in 10.0 mi Calm Calm - N/A   Clear
1:44 AM 62.6 °F 59.0 °F 88% 29.80 in 10.0 mi Calm Calm - N/A   Clear
2:04 AM 62.6 °F 59.0 °F 88% 29.79 in 10.0 mi WSW 3.5 mph - N/A   Clear
2:24 AM 62.6 °F 59.0 °F 88% 29.78 in 10.0 mi Calm Calm - N/A   Clear
2:44 AM 62.6 °F 57.2 °F 82% 29.78 in 10.0 mi Calm Calm - N/A   Clear
3:04 AM 62.6 °F 57.2 °F 82% 29.78 in 10.0 mi Calm Calm - N/A   Scattered Clouds
3:24 AM 60.8 °F 55.4 °F 82% 29.78 in 10.0 mi Calm Calm - N/A   Clear
3:44 AM 60.8 °F 57.2 °F 88% 29.78 in 10.0 mi West 3.5 mph - N/A   Clear
4:04 AM 60.8 °F 57.2 °F 88% 29.77 in 10.0 mi WNW 3.5 mph - N/A   Scattered Clouds
4:24 AM 60.8 °F 57.2 °F 88% 29.77 in 10.0 mi West 4.6 mph - N/A   Overcast
4:44 AM 60.8 °F 57.2 °F 88% 29.78 in 10.0 mi West 3.5 mph - N/A   Mostly Cloudy
5:04 AM 60.8 °F 57.2 °F 88% 29.78 in 10.0 mi West 3.5 mph - N/A   Mostly Cloudy
5:24 AM 60.8 °F 57.2 °F 88% 29.78 in 10.0 mi West 3.5 mph - N/A   Overcast
5:44 AM 60.8 °F 59.0 °F 94% 29.79 in 10.0 mi West 5.8 mph - N/A   Mostly Cloudy
6:04 AM 62.6 °F 59.0 °F 88% 29.79 in 10.0 mi West 5.8 mph - N/A   Scattered Clouds
6:25 AM 62.6 °F 59.0 °F 88% 29.80 in 10.0 mi West 5.8 mph - N/A   Scattered Clouds
6:45 AM 62.6 °F 59.0 °F 88% 29.81 in 10.0 mi West 4.6 mph - N/A   Mostly Cloudy
7:05 AM 62.6 °F 59.0 °F 88% 29.81 in 10.0 mi West 5.8 mph - N/A   Mostly Cloudy
7:25 AM 62.6 °F 59.0 °F 88% 29.82 in 10.0 mi West 5.8 mph - N/A   Mostly Cloudy
7:45 AM 62.6 °F 59.0 °F 88% 29.83 in 10.0 mi West 8.1 mph - N/A   Overcast
8:05 AM 64.4 °F 59.0 °F 83% 29.83 in 10.0 mi WNW 5.8 mph - N/A   Overcast
8:25 AM 64.4 °F 59.0 °F 83% 29.83 in 10.0 mi WNW 9.2 mph - N/A   Overcast
8:45 AM 64.4 °F 57.2 °F 77% 29.84 in 10.0 mi WNW 12.7 mph 20.7 mph N/A   Overcast
9:05 AM 62.6 °F 55.4 °F 77% 29.86 in 10.0 mi WNW 10.4 mph 21.9 mph N/A   Overcast
9:25 AM 60.8 °F 50.0 °F 68% 29.87 in 10.0 mi WNW 9.2 mph 19.6 mph N/A   Overcast
9:45 AM 59.0 °F 50.0 °F 72% 29.88 in 10.0 mi WNW 10.4 mph 20.7 mph N/A   Overcast
10:05 AM 55.4 °F 46.4 °F 72% 29.90 in 7.0 mi WNW 11.5 mph 26.5 mph N/A   Overcast
10:25 AM 53.6 °F 48.2 °F 82% 29.92 in 7.0 mi WNW 5.8 mph 18.4 mph N/A   Overcast
10:45 AM 53.6 °F 48.2 °F 82% 29.92 in 5.0 mi WNW 9.2 mph - N/A   Overcast
11:05 AM 53.6 °F 48.2 °F 82% 29.92 in 10.0 mi WNW 8.1 mph - N/A   Overcast
11:25 AM 53.6 °F 46.4 °F 77% 29.92 in 10.0 mi WNW 9.2 mph 18.4 mph N/A   Overcast
11:45 AM 55.4 °F 46.4 °F 72% 29.93 in 10.0 mi WNW 11.5 mph 24.2 mph N/A   Overcast
12:05 PM 55.4 °F 44.6 °F 67% 29.94 in 10.0 mi NW 11.5 mph 21.9 mph N/A   Overcast
12:25 PM 53.6 °F 44.6 °F 72% 29.94 in 10.0 mi WNW 11.5 mph 24.2 mph N/A   Overcast
12:45 PM 53.6 °F 44.6 °F 72% 29.95 in 10.0 mi NW 8.1 mph 18.4 mph N/A   Overcast
1:05 PM 53.6 °F 44.6 °F 72% 29.96 in 10.0 mi NW 10.4 mph 19.6 mph N/A   Overcast
1:25 PM 55.4 °F 42.8 °F 63% 29.96 in 10.0 mi WNW 12.7 mph 19.6 mph N/A   Overcast
1:45 PM 55.4 °F 42.8 °F 63% 29.96 in 10.0 mi WNW 16.1 mph 21.9 mph N/A   Overcast
2:05 PM 55.4 °F 41.0 °F 58% 29.98 in 10.0 mi WNW 12.7 mph 20.7 mph N/A   Overcast
2:25 PM 55.4 °F 41.0 °F 58% 29.98 in 10.0 mi WNW 12.7 mph 27.6 mph N/A   Overcast
2:46 PM 55.4 °F 41.0 °F 58% 29.97 in 10.0 mi NW 6.9 mph 19.6 mph N/A   Overcast
3:06 PM 55.4 °F 41.0 °F 58% 29.98 in 10.0 mi NW 11.5 mph 24.2 mph N/A   Overcast
3:26 PM 55.4 °F 41.0 °F 58% 29.99 in 10.0 mi WNW 11.5 mph 20.7 mph N/A   Overcast
3:46 PM 55.4 °F 41.0 °F 58% 29.99 in 10.0 mi WNW 10.4 mph 20.7 mph N/A   Overcast
4:06 PM 55.4 °F 39.2 °F 54% 29.99 in 10.0 mi WNW 12.7 mph 21.9 mph N/A   Overcast
4:26 PM 55.4 °F 39.2 °F 54% 30.00 in 10.0 mi WNW 11.5 mph 19.6 mph N/A   Overcast
4:46 PM 55.4 °F 39.2 °F 54% 30.01 in 10.0 mi WNW 10.4 mph 17.3 mph N/A   Overcast
5:06 PM 55.4 °F 39.2 °F 54% 30.01 in 10.0 mi NW 13.8 mph 23.0 mph N/A   Overcast
5:26 PM 55.4 °F 39.2 °F 54% 30.01 in 10.0 mi WNW 10.4 mph 20.7 mph N/A   Overcast
5:46 PM 55.4 °F 37.4 °F 51% 30.02 in 10.0 mi WNW 11.5 mph 25.3 mph N/A   Overcast
6:06 PM 55.4 °F 39.2 °F 54% 30.03 in 10.0 mi WNW 11.5 mph 16.1 mph N/A   Overcast
6:26 PM 53.6 °F 37.4 °F 54% 30.04 in 10.0 mi WNW 10.4 mph 21.9 mph N/A   Overcast
6:46 PM 53.6 °F 37.4 °F 54% 30.04 in 10.0 mi NW 10.4 mph 20.7 mph N/A   Overcast
7:06 PM 53.6 °F 37.4 °F 54% 30.05 in 10.0 mi WNW 6.9 mph - N/A   Overcast
7:26 PM 53.6 °F 37.4 °F 54% 30.06 in 10.0 mi NW 8.1 mph 18.4 mph N/A   Overcast
7:46 PM 53.6 °F 37.4 °F 54% 30.07 in 10.0 mi WNW 11.5 mph 18.4 mph N/A   Overcast
8:06 PM 53.6 °F 35.6 °F 51% 30.08 in 10.0 mi WNW 8.1 mph 19.6 mph N/A   Overcast
8:26 PM 53.6 °F 33.8 °F 47% 30.09 in 10.0 mi WNW 8.1 mph 20.7 mph N/A   Overcast
8:46 PM 53.6 °F 33.8 °F 47% 30.09 in 10.0 mi NW 9.2 mph 23.0 mph N/A   Overcast
9:06 PM 53.6 °F 33.8 °F 47% 30.09 in 10.0 mi WNW 8.1 mph 18.4 mph N/A   Overcast
9:26 PM 53.6 °F 33.8 °F 47% 30.10 in 10.0 mi WNW 8.1 mph 17.3 mph N/A   Overcast
9:46 PM 53.6 °F 33.8 °F 47% 30.11 in 10.0 mi WNW 11.5 mph 19.6 mph N/A   Overcast
10:06 PM 53.6 °F 33.8 °F 47% 30.12 in 10.0 mi WNW 9.2 mph 18.4 mph N/A   Overcast
10:26 PM 51.8 °F 33.8 °F 50% 30.13 in 10.0 mi WNW 9.2 mph 17.3 mph N/A   Overcast
10:46 PM 51.8 °F 33.8 °F 50% 30.14 in 10.0 mi WNW 10.4 mph - N/A   Overcast
11:07 PM 51.8 °F 33.8 °F 50% 30.14 in 10.0 mi WNW 11.5 mph 17.3 mph N/A   Overcast
11:27 PM 50.0 °F 32.0 °F 50% 30.14 in 10.0 mi WNW 11.5 mph 18.4 mph N/A   Overcast
11:47 PM 50.0 °F 32.0 °F 50% 30.14 in 10.0 mi WNW 10.4 mph 16.1 mph N/A   Mostly Cloudy